This demonstration page uses our WeatherBlox Daily Observations layout. Learn more.

Left ArrowRight Arrow

Hourly Observations for August 19, 2020

Temp ( °F °C ) Dew Point ( °F °C ) Humidity (%) Winds ( mph kmh ) Pressure ( in mb ) Visibility ( mi km ) Precip ( " mm )
12:15 am 00:15 Clear 58 14.4 54 12.2 87 87 N 6 9 30.05 1017 10 16 0.00 0.00
12:35 am 00:35 Clear 57 14.1 54 12.2 88 88 N 6 9 30.05 1017 10 16 0.00 0.00
12:55 am 00:55 Clear 57 13.8 54 12.2 90 90 N 5 7 30.05 1018 10 16 0.00 0.00
1:15 am 01:15 Clear 57 14 54 12.1 88 88 NNE 6 9 30.06 1018 10 16 0.00 0.00
1:35 am 01:35 Clear 58 14.3 54 12 86 86 NNE 6 9 30.06 1018 10 16 0.00 0.00
1:55 am 01:55 Clear 57 14.1 54 12 87 87 NNE 6 9 30.06 1018 10 16 0.00 0.00
2:15 am 02:15 Clear 57 14 54 12 88 88 NNE 6 9 30.06 1018 10 16 0.00 0.00
2:35 am 02:35 Clear 56 13.5 54 12 91 91 NNE 5 7 30.06 1018 10 16 0.00 0.00
2:55 am 02:55 Clear 56 13.1 53 11.9 93 93 NNE 5 7 30.05 1018 10 16 0.00 0.00
3:15 am 03:15 Clear 55 12.7 53 11.7 94 94 NNE 6 9 30.05 1018 10 16 0.00 0.00
3:35 am 03:35 Clear 55 12.6 53 11.6 94 94 N 6 9 30.05 1018 10 16 0.00 0.00
3:55 am 03:55 Clear 55 12.5 53 11.5 94 94 N 6 9 30.05 1018 10 16 0.00 0.00
4:15 am 04:15 Clear 55 12.5 53 11.4 93 93 N 5 7 30.05 1018 10 16 0.00 0.00
4:35 am 04:35 Clear 54 12.2 53 11.5 96 96 NNE 3 6 30.05 1018 10 16 0.00 0.00
4:55 am 04:55 Clear 53 11.6 52 11.2 97 97 Calm 30.06 1018 10 16 0.00 0.00
5:15 am 05:15 Clear 53 11.8 52 11.2 96 96 Calm 30.05 1018 10 16 0.00 0.00
5:35 am 05:35 Clear 53 11.5 51 10.8 96 96 NNE 5 7 30.07 1018 10 16 0.00 0.00
5:55 am 05:55 Clear 51 10.8 51 10.4 97 97 Calm 30.07 1018 10 16 0.00 0.00
6:15 am 06:15 Clear 52 11 51 10.5 97 97 N 5 7 30.07 1018 10 16 0.00 0.00
6:35 am 06:35 Clear 52 11 51 10.5 97 97 NNE 3 6 30.07 1018 10 16 0.00 0.00
6:55 am 06:55 Clear 53 11.5 51 10.6 94 94 Calm 30.08 1018 10 16 0.00 0.00
7:15 am 07:15 Sunny 53 11.7 51 10.8 94 94 Calm 30.07 1018 10 16 0.00 0.00
7:35 am 07:35 Sunny 52 11.3 51 10.8 97 97 Calm 30.09 1019 10 16 0.00 0.00
7:55 am 07:55 Sunny 55 12.6 53 11.4 92 92 Calm 30.08 1019 10 16 0.00 0.00
8:15 am 08:15 Sunny 56 13.5 54 12.4 93 93 Calm 30.09 1019 10 16 0.00 0.00
8:35 am 08:35 Sunny 59 14.8 55 12.8 88 88 Calm 30.08 1019 10 16 0.00 0.00
8:55 am 08:55 Sunny 60 15.6 55 12.9 84 84 NE 3 6 30.09 1019 10 16 0.00 0.00
9:15 am 09:15 Sunny 62 16.6 56 13.3 81 81 Calm 30.09 1019 10 16 0.00 0.00
9:35 am 09:35 Sunny 63 17.4 57 13.9 80 80 Calm 30.09 1019 10 16 0.00 0.00
9:55 am 09:55 Sunny 64 18 57 14.1 78 78 Calm 30.08 1019 10 16 0.00 0.00
10:15 am 10:15 Sunny 67 19.5 57 13.7 69 69 Calm 30.08 1019 10 16 0.00 0.00
10:35 am 10:35 Sunny 69 20.4 58 14.3 68 68 Calm 30.08 1019 10 16 0.00 0.00
10:55 am 10:55 Sunny 69 20.8 57 13.8 64 64 E 6 9 30.08 1019 10 16 0.00 0.00
11:15 am 11:15 Sunny 71 21.6 59 14.9 66 66 ENE 5 7 30.08 1019 10 16 0.00 0.00
11:35 am 11:35 Sunny 71 21.5 58 14.6 65 65 NNE 6 9 30.08 1019 10 16 0.00 0.00
11:55 am 11:55 Sunny 71 21.8 56 13.5 59 59 Calm 30.08 1019 10 16 0.00 0.00
12:15 pm 12:15 Sunny 72 22.1 57 13.8 59 59 ENE 3 6 30.08 1019 10 16 0.00 0.00
12:35 pm 12:35 Sunny 72 22.3 57 13.8 59 59 ENE 6 9 30.07 1018 10 16 0.00 0.00
12:55 pm 12:55 Sunny 73 22.6 56 13.4 56 56 ESE 5 7 30.07 1018 10 16 0.00 0.00
1:15 pm 13:15 Sunny 73 22.5 54 12.2 52 52 E 3 6 30.07 1018 10 16 0.00 0.00
1:35 pm 13:35 Sunny 73 22.8 57 13.8 57 57 NE 3 6 30.07 1018 10 16 0.00 0.00
1:55 pm 13:55 Sunny 73 22.7 55 12.5 53 53 NE 5 7 30.06 1018 10 16 0.00 0.00
2:15 pm 14:15 Sunny 73 23 57 13.7 56 56 Calm 30.06 1018 10 16 0.00 0.00
2:35 pm 14:35 Sunny 74 23.1 55 13 53 53 Calm 30.06 1018 10 16 0.00 0.00
2:55 pm 14:55 Sunny 74 23.4 57 13.8 55 55 NE 7 11 30.05 1017 10 16 0.00 0.00
3:15 pm 15:15 Sunny 74 23.2 57 13.8 56 56 NNW 7 11 30.05 1017 10 16 0.00 0.00
3:35 pm 15:35 Sunny 74 23.5 58 14.2 56 56 NNE 8 13 30.03 1017 10 16 0.00 0.00
3:55 pm 15:55 Sunny 73 22.9 58 14.2 58 58 ENE 5 7 30.04 1017 10 16 0.00 0.00
4:15 pm 16:15 Sunny 74 23.5 58 14.7 58 58 N 7 11 30.02 1017 10 16 0.00 0.00
4:35 pm 16:35 Sunny 75 23.8 59 14.9 58 58 N 7 11 30.02 1017 10 16 0.00 0.00
4:55 pm 16:55 Sunny 75 23.7 57 14 55 55 NNE 6 9 30.02 1017 10 16 0.00 0.00
5:15 pm 17:15 Sunny 74 23.5 57 13.7 54 54 NE 6 9 30.02 1017 10 16 0.00 0.00
5:35 pm 17:35 Sunny 74 23.6 56 13.6 54 54 N 8 13 30.02 1017 10 16 0.00 0.00
5:55 pm 17:55 Sunny 74 23.5 57 14 55 55 NE 7 11 30.01 1016 10 16 0.00 0.00
6:15 pm 18:15 Sunny 74 23.2 57 13.7 55 55 NNE 5 7 30.02 1016 10 16 0.00 0.00
6:35 pm 18:35 Sunny 74 23.1 58 14.2 57 57 NE 5 7 30.02 1016 10 16 0.00 0.00
6:55 pm 18:55 Sunny 73 22.9 57 13.9 57 57 NNE 6 9 30.01 1016 10 16 0.00 0.00
7:15 pm 19:15 Sunny 73 22.5 58 14.5 61 61 NNE 5 7 30.01 1016 10 16 0.00 0.00
7:35 pm 19:35 Sunny 71 21.6 59 15 66 66 NNE 3 6 30.01 1016 10 16 0.00 0.00
7:55 pm 19:55 Sunny 70 21.3 60 15.7 71 71 N 3 6 30.02 1017 10 16 0.00 0.00
8:15 pm 20:15 Sunny 68 20.2 62 16.5 79 79 Calm 30.02 1016 10 16 0.00 0.00
8:35 pm 20:35 Sunny 66 19 60 15.6 81 81 Calm 30.03 1017 10 16 0.00 0.00
8:55 pm 20:55 Clear 63 17.4 61 15.9 91 91 Calm 30.04 1017 10 16 0.00 0.00
9:15 pm 21:15 Clear 62 16.5 59 15.1 92 92 Calm 30.04 1017 10 16 0.00 0.00
9:35 pm 21:35 Clear 61 16.1 59 15.2 94 94 Calm 30.05 1018 10 16 0.00 0.00
9:55 pm 21:55 Clear 61 15.9 59 14.8 93 93 Calm 30.05 1018 10 16 0.00 0.00
10:15 pm 22:15 Clear 59 15.2 58 14.2 94 94 Calm 30.05 1018 10 16 0.00 0.00
10:35 pm 22:35 Clear 58 14.7 58 14.3 97 97 Calm 30.05 1018 10 16 0.00 0.00
10:55 pm 22:55 Clear 58 14.5 57 14 97 97 Calm 30.07 1018 10 16 0.00 0.00
11:15 pm 23:15 Clear 57 13.7 56 13.3 97 97 Calm 30.07 1018 10 16 0.00 0.00
11:35 pm 23:35 Clear 57 14 56 13.6 97 97 Calm 30.07 1018 10 16 0.00 0.00
11:55 pm 23:55 Clear 56 13.2 55 12.9 98 98 Calm 30.08 1019 10 16 0.00 0.00

Powered by AerisWeather